CDT,Max TemperatureF,Mean TemperatureF,Min TemperatureF,Max Dew PointF,MeanDew PointF,Min DewpointF,Max Humidity, Mean Humidity, Min Humidity, Max Sea Level PressureIn, Mean Sea Level PressureIn, Min Sea Level PressureIn, Max VisibilityMiles, Mean VisibilityMiles, Min VisibilityMiles, Max Wind SpeedMPH, Mean Wind SpeedMPH, Max Gust SpeedMPH,PrecipitationIn, CloudCover, Events, WindDirDegrees
2013-8-1,86,74,62,68,65,62,100,79,49,30.15,30.05,29.89,10,9,2,22,6,30,0.53,1,Rain-Thunderstorm,165
2013-8-2,80,72,64,70,67,64,100,85,64,30.04,29.94,29.86,10,10,5,20,9,26,0.40,3,Rain-Thunderstorm,96
2013-8-3,76,68,60,65,62,59,100,85,63,30.22,30.14,30.05,10,10,10,14,7,20,0.00,3,,64
2013-8-4,78,70,63,71,65,57,100,85,73,30.19,30.11,30.02,10,10,7,13,8,17,0.00,7,,117
2013-8-5,82,76,69,74,72,70,100,91,69,30.04,29.95,29.89,10,8,1,12,6,,0.00,5,,192
2013-8-6,86,75,64,75,70,65,100,86,62,29.94,29.88,29.85,10,7,0,15,4,22,0.00,2,Fog,141
2013-8-7,81,72,64,71,65,59,100,78,46,30.03,29.99,29.91,10,10,10,9,5,,0.00,0,,55
2013-8-8,76,70,65,68,65,63,98,86,67,30.07,30.03,29.97,10,10,10,6,3,,0.00,2,Rain,125
2013-8-9,79,70,61,71,64,61,100,85,54,30.19,30.11,30.06,10,7,0,9,5,,0.00,3,Fog,39
2013-8-10,82,71,60,64,62,57,99,74,49,30.21,30.17,30.09,10,10,10,12,5,16,0.00,1,,165
2013-8-11,84,74,63,70,65,61,100,78,55,30.15,30.09,30.02,10,10,2,26,9,41,0.75,2,Rain-Thunderstorm,194
2013-8-12,81,70,59,69,65,60,100,81,55,30.11,30.07,30.04,10,9,4,8,3,,0.02,2,Rain-Thunderstorm,32
2013-8-13,75,67,60,66,62,59,100,88,62,30.22,30.15,30.11,10,10,4,12,5,,0.07,2,Rain-Thunderstorm,79
2013-8-14,74,65,57,66,61,58,100,85,67,30.20,30.14,30.06,10,8,4,10,4,,0.03,6,Rain,162
2013-8-15,77,70,62,68,65,62,100,87,63,30.11,30.04,29.99,10,9,3,12,5,17,0.16,5,Rain-Thunderstorm,136
2013-8-16,69,64,60,65,63,61,100,92,80,30.18,30.14,30.11,10,8,4,8,5,,0.00,8,,110
2013-8-17,76,68,59,64,61,59,100,83,62,30.19,30.15,30.11,10,10,7,14,7,20,0.00,4,,156
2013-8-18,79,68,59,65,60,56,91,74,55,30.15,30.11,30.05,10,10,10,15,8,22,0.00,4,,168
2013-8-19,84,74,63,68,66,63,97,76,57,30.07,30.01,29.93,10,10,5,17,10,23,0.00,1,,188
2013-8-20,86,76,67,71,68,66,97,76,56,29.99,29.96,29.92,10,9,5,15,10,21,0.00,0,,194
2013-8-21,89,77,65,71,67,65,100,73,52,30.01,29.97,29.92,10,9,4,15,10,18,0.00,0,Thunderstorm,173
2013-8-22,81,74,67,72,69,64,100,86,61,30.13,30.07,29.97,10,9,4,16,9,24,0.46,3,Rain-Thunderstorm,90
2013-8-23,87,77,68,72,70,68,100,81,55,30.09,30.03,29.96,10,8,2,16,8,23,0.02,3,Rain-Thunderstorm,146
2013-8-24,90,82,73,72,70,68,91,71,51,30.05,30.01,29.98,10,10,10,21,14,29,0.01,0,,172
2013-8-25,92,82,72,71,70,69,89,69,47,30.10,30.07,30.04,10,10,10,20,14,28,0.00,0,,181
2013-8-26,94,82,71,69,68,65,88,64,41,30.09,30.04,29.97,10,10,10,16,12,24,0.00,0,,188
2013-8-27,94,81,69,68,65,62,83,61,39,29.99,29.97,29.92,10,10,7,15,11,21,0.00,0,,198
2013-8-28,92,78,64,70,65,61,91,68,40,30.03,30.00,29.96,10,10,10,12,8,,0.00,0,,188
2013-8-29,94,80,66,73,70,66,100,77,43,30.03,29.98,29.92,10,10,10,12,5,17,0.00,0,,156
2013-8-30,93,80,66,76,71,64,98,75,51,29.97,29.93,29.90,10,10,7,9,5,,0.00,0,,34
2013-8-31,92,81,70,75,70,61,100,73,36,29.99,29.89,29.82,10,10,7,7,3,,0.00,1,Rain,164